This is the latest recevied weather packets stored in our database for station/object DO7CRZ-12. If no packets are shown the sender has not sent any weather packets the latest 10 day(s).
| Time | Temp. | Humidity | Pressure | Rain* | Wind** | Luminosity | Snow |
|---|---|---|---|---|---|---|---|
| 1777961242 | 16.67° C | 68% | 1008.6 hPa | 0 mm | - | 58 W/m² | - |
| 1777960639 | 16.11° C | 72% | 1008.6 hPa | 0 mm | - | 47 W/m² | - |
| 1777960036 | 15.56° C | 74% | 1008.7 hPa | 0 mm | - | 38 W/m² | - |
| 1777959448 | 15° C | 74% | 1008.9 hPa | 0 mm | - | 26 W/m² | - |
| 1777958845 | 15.56° C | 74% | 1009 hPa | 0 mm | - | 23 W/m² | - |
| 1777958243 | 15.56° C | 73% | 1008.7 hPa | 0 mm | - | 24 W/m² | - |
| 1777957639 | 16.11° C | 72% | 1008.5 hPa | 0 mm | - | 24 W/m² | - |
| 1777957037 | 16.11° C | 72% | 1008.4 hPa | 0 mm | - | 23 W/m² | - |
| 1777956449 | 15.56° C | 72% | 1008.6 hPa | 0 mm | - | 21 W/m² | - |
| 1777955846 | 15.56° C | 72% | 1008.6 hPa | 0 mm | - | 18 W/m² | - |
| 1777955243 | 15.56° C | 72% | 1008.7 hPa | 0 mm | - | 17 W/m² | - |
| 1777954641 | 15.56° C | 72% | 1008.5 hPa | 0 mm | - | 13 W/m² | - |
| 1777954038 | 15.56° C | 71% | 1008.7 hPa | 0 mm | - | 8 W/m² | - |
| 1777953435 | 15.56° C | 70% | 1008.7 hPa | 0 mm | - | 5 W/m² | - |
| 1777952847 | 15.56° C | 69% | 1008.8 hPa | 0 mm | - | 2 W/m² | - |
| 1777952244 | 15.56° C | 69% | 1009 hPa | 0 mm | - | 0 W/m² | - |
| 1777951642 | 15.56° C | 69% | 1009.1 hPa | 0 mm | - | 0 W/m² | - |
| 1777950436 | 15.56° C | 69% | 1009.1 hPa | 0 mm | - | 0 W/m² | - |
| 1777949848 | 15.56° C | 68% | 1009.3 hPa | 0 mm | - | 0 W/m² | - |
| 1777949246 | 15.56° C | 69% | 1009.5 hPa | 0 mm | - | 0 W/m² | - |
| 1777948643 | 15.56° C | 69% | 1009.8 hPa | 0 mm | - | 0 W/m² | - |
| 1777948040 | 15.56° C | 69% | 1009.8 hPa | 0 mm | - | 0 W/m² | - |
| 1777947437 | 15.56° C | 69% | 1010 hPa | 0 mm | - | 0 W/m² | - |
| 1777946849 | 15.56° C | 69% | 1010.1 hPa | 0 mm | - | 0 W/m² | - |
| 1777945041 | 15.56° C | 68% | 1010.1 hPa | 0 mm | - | 0 W/m² | - |
* Rain latest hour (hover to see other rain measurements)
** Current wind speed in m/s (hover to see current wind gust speed)